Torna al catalogo

TITAN 3C TRANSTAGE DEB

AttivoMEO
NORAD 43282·DEBRIS·🇺🇸 United States

Lanciato Feb 9, 1969 da Cape Canaveral Space Force Station

Loading…

Prossimi Passaggi (prossime 24 ore)

TLE

AggiornatoSource: Space-Track

Epoca: Sep 14, 2026, 06:59 UTC

1 43282U 69013C   26257.29115504 -.00000201  00000-0  00000-0 0  9991
2 43282   2.4012  61.0538 0277009 232.5833 125.4439  0.91410037 28401

Traccia TITAN 3C TRANSTAGE DEB in tempo reale con AllMySat

Download on the App Store